Starlink 31904

operational
NORAD ID: 59657 Int'l Des: 2024-084 Owner: SPXS Country: US Constellation: starlink
LEOCIRCULAR

关于 Starlink 31904

正在加载描述...

实时位置

正在加载3D地球...

即将过境

高度历史

Altitude vs Time

uPlot chart will show altitude changes over time

两行轨道根数

1 59657U 24084D 25260.16242255 -.00001182 00000-0 -33426-4 0 9998
2 59657 43.0022 301.8549 0001460 285.5746 74.4944 15.27579103 77830
Epoch: Sep 17, 2025 • Age: 7 hours

当前状态

高度 482.7 km
速度 7.63 km/s
星下点 4.91°N, 45.6°W
发射日期 May 6, 2024
运行时间 1.3 years
类型 internet

技术详情

分类 Payload
质量 730.00 kg
干质量 700.00 kg
总质量 730.00 kg
长度 0.30 m
直径 4.10 m
跨度 29.00 m
形状 Box + pan
制造商 SPXS
平台类型 Starlink V2M
阶段状态 In Orbit
所有者/国家 SPXS/US

大型星座

Loading constellations...